Regional Weather Roundup
Issued by NWS

Home | Current Version | Previous Version | Graphics & Text | Print | Product List | Glossary On
Versions: 1 2 3 4 5 6 7 8 9 10 11 12 13 14 15 16 17 18 19 20 21 22 23 24 25 26 27 28 29 30 31 32 33 34 35 36 37 38 39 40 41 42 43 44 45 46 47 48 49 50
000
ASUS45 KBOU 092107
RWRCO

WEATHER ROUNDUP FOR COLORADO
NATIONAL WEATHER SERVICE DENVER/BOULDER CO
200 PM MST TUE FEB 09 2016

NOTE: "FAIR" INDICATES FEW OR NO CLOUDS BELOW 12000 FEET WITH NO
SIGNIFICANT WEATHER AND/OR OBSTRUCTIONS TO VISIBILITY.

COZ001>005-013-030-031-092200-
...NORTHWEST COLORADO...

CITY           SKY/WX    TMP DP  RH WIND       PRES   REMARKS
CRAIG          MIX PCPN  25  16  68 CALM      30.48F
HAYDEN         SUNNY     27  16  63 E6        30.47F WCI  20
MEEKER         SUNNY     35  20  54 CALM      30.45F
MOUNT WERNER   NOT AVBL
STEAMBOAT SPGS SUNNY     26  15  63 CALM      30.47F
WALDEN         SUNNY     23  14  68 CALM      30.44S
$$

COZ006>008-011-092200-
...WEST CENTRAL VALLEYS...

CITY           SKY/WX    TMP DP  RH WIND       PRES   REMARKS
GRAND JUNCTION SUNNY     40  25  55 E3        30.46F
MONTROSE       SUNNY     43  21  41 N3        30.46F
EAGLE          SUNNY     36  18  48 CALM      30.50F
RIFLE          SUNNY     40  20  44 CALM      30.46F
DELTA          SUNNY     45  24  44 CALM      30.46F
NUCLA          SUNNY     43  27  52 CALM      30.45F
$$

COZ017>023-064>068-092200-
...SOUTHWEST COLORADO...

CITY           SKY/WX    TMP DP  RH WIND       PRES   REMARKS
DURANGO        SUNNY     41  22  46 NE6       30.38F
CORTEZ         SUNNY     44  28  53 SW5       30.37F
PAGOSA SPRINGS SUNNY     48  12  23 SW3       30.38F
TELLURIDE      SUNNY     47   9  21 W12       30.45F
WOLF CREEK PAS SUNNY     36   0  21 N8        30.54S
$$

COZ009-010-012-014-032>034-037-058>063-092200-
...CENTRAL COLORADO...

CITY           SKY/WX    TMP DP  RH WIND       PRES   REMARKS
ASPEN          SUNNY     38  19  46 NW6       30.44F
BUENA VISTA    SUNNY     50  13  22 NW18      30.35R
COPPER MTN     SUNNY     34   7  32 NW20      30.49F WCI  22
BERTHOUD PASS  FAIR      23  12  63 N21G44    30.47R HAZE    WCI   8
COTTONWOOD PAS SUNNY     48  -9   9 W9G20     30.41S
GUNNISON       CLOUDY    14   9  79 CALM      30.53F
KREMMLING      CLOUDY    19   9  63 CALM      30.52F
LEADVILLE      SUNNY     41   6  23 N16G24    30.43F
MONARCH PASS   SUNNY     32   9  37 SW14      30.58F WCI  22
SALIDA         NOT AVBL
SUNLIGHT       SUNNY     32  19  59 NW6       30.53  WCI  26
WILKERSON PASS SUNNY     37   0  20 NE5       30.46S
$$

COZ069>075-092200-
...SAN LUIS VALLEY/SANGRE DE CRISTO MOUNTAINS...

CITY           SKY/WX    TMP DP  RH WIND       PRES   REMARKS
ALAMOSA        SUNNY     45  16  31 CALM      30.38F
LA VETA PASS   SUNNY     43  12  28 S7        30.42S
SAGUACHE       SUNNY     41  19  42 S5        30.40F
$$

COZ035-036-038>040-092200-
...NORTHERN COLORADO FRONT RANGE...

CITY           SKY/WX    TMP DP  RH WIND       PRES   REMARKS
DENVER INTL AP MOSUNNY   53  16  23 CALM      30.28F
DMNS CITY PARK   N/A     54  15  21 E7        30.27S
AURORA         MOSUNNY   51  22  32 E8        30.29F
FRONT RANGE AP MOSUNNY   48  25  40 MISG      30.29F
ERIE MUNI ARPT SUNNY     53  24  32 CALM      30.28S
BOULDER MUN AP SUNNY     50  23  34 CALM      30.28F
CENTENNIAL     MOSUNNY   51  15  23 E7        30.29F
BROOMFIELD     SUNNY     55  21  26 E5        30.29F
FORT COLLINS   SUNNY     46  25  42 SW5       30.28F
LONGMONT       SUNNY     55  21  26 CALM      30.29F
$$

COZ041-046-047-076>085-087-088-092200-
...PIKES PEAK/PALMER DIVIDE AND SOUTHERN FOOTHILLS...

CITY           SKY/WX    TMP DP  RH WIND       PRES   REMARKS
COLO. SPRINGS  MOSUNNY   46  18  32 E7        30.33S
A. F. ACADEMY  SUNNY     47  15  27 S6        30.31S
SCHRIEVER AFB  FAIR      45  14  28 E3        30.32
ELLICOTT       NOT AVBL
FALCON         NOT AVBL
FORT CARSON    SUNNY     47  20  34 SE6       30.31S
LIMON          SUNNY     44  24  45 W7        30.29F
MONUMENT HILL  SUNNY     43  12  28 CALM      30.34R
TRINIDAD       SUNNY     59  11  15 E10       30.28F
$$

COZ042>045-048>051-090-091-092200-
...NORTHEAST COLORADO...

CITY           SKY/WX    TMP DP  RH WIND       PRES   REMARKS
GREELEY ARPT   SUNNY     43  28  56 S8        30.27F
AKRON          SUNNY     43  32  65 W10       30.25F
BURLINGTON     SUNNY     43  29  57 NW14      30.25F
WRAY           CLOUDY    48  30  49 NW15G21   30.23S
STERLING       SUNNY     46  32  57 NW12      30.24F
HOLYOKE        CLOUDY    46  32  57 NW15G23   30.22F
FORT MORGAN    SUNNY     44  28  53 NW8       30.28S
$$

COZ086-089-092>099-092200-
...SOUTHEAST COLORADO...

CITY           SKY/WX    TMP DP  RH WIND       PRES   REMARKS
PUEBLO         SUNNY     58  22  24 E8        30.29F
LA JUNTA       SUNNY     59  24  26 N9        30.29F
LAMAR          SUNNY     60  27  28 N22G32    30.26S
SPRINGFIELD      N/A     57  23  26 N20G29    30.28S
$$



USA.gov is the U.S. government's official web portal to all federal, state and local government web resources and services.